When you browse on this site, cookies collect data to enhance your experience and personalize the content and advertising you see.
Visit our Privacy Policy to learn more. By continuing to use the site, you agree to this use of cookies and data.
  • en France
  • Liste des pays
  • À 7 jours
  • Température de l'eau
  • Carte météo
  • Widgets météo
  • user-avatar
    Se connecter

    Météo par heure à Pazardjik

    Ce jour, 16 Septembre, Lundi

    Heure Température Précipitation Vent Pression Humidité
    00:00 +19°C° 0 mm 1 m/s 747 mmHg 65%
    01:00 +18°C° 0 mm 1 m/s 747 mmHg 69%
    02:00 +16°C° 0 mm 1 m/s 747 mmHg 74%
    03:00 +16°C° 0 mm 1 m/s 747 mmHg 75%
    04:00 +16°C° 0 mm 1 m/s 746 mmHg 75%
    05:00 +16°C° 0 mm 1 m/s 746 mmHg 75%
    06:00 +19°C° 0 mm 1 m/s 746 mmHg 68%
    07:00 +21°C° 0 mm 1 m/s 746 mmHg 60%
    08:00 +23°C° 0 mm 1 m/s 746 mmHg 51%
    09:00 +25°C° 0 mm 1 m/s 746 mmHg 44%
    10:00 +28°C° 0 mm 1 m/s 745 mmHg 37%
    11:00 +30°C° 0 mm 1 m/s 745 mmHg 31%
    12:00 +31°C° 0 mm 2 m/s 744 mmHg 28%
    13:00 +32°C° 0 mm 2 m/s 744 mmHg 25%
    14:00 +34°C° 0 mm 2 m/s 743 mmHg 22%
    15:00 +34°C° 0 mm 2 m/s 743 mmHg 23%
    16:00 +32°C° 0 mm 2 m/s 742 mmHg 23%
    17:00 +32°C° 0 mm 2 m/s 742 mmHg 24%
    18:00 +29°C° 0 mm 2 m/s 742 mmHg 30%
    19:00 +26°C° 0 mm 2 m/s 742 mmHg 35%
    20:00 +23°C° 0 mm 1 m/s 743 mmHg 40%
    21:00 +23°C° 0 mm 1 m/s 743 mmHg 41%
    22:00 +21°C° 0 mm 2 m/s 743 mmHg 42%
    23:00 +20°C° 0 mm 2 m/s 743 mmHg 44%

    Demain, 17 Septembre, Mardi

    Heure Température Précipitation Vent Pression Humidité
    00:00 +20°C° 0 mm 2 m/s 743 mmHg 44%
    01:00 +20°C° 0 mm 2 m/s 743 mmHg 45%
    02:00 +19°C° 0 mm 2 m/s 743 mmHg 46%
    03:00 +19°C° 0 mm 2 m/s 742 mmHg 46%
    04:00 +19°C° 0 mm 2 m/s 742 mmHg 46%
    05:00 +18°C° 0 mm 2 m/s 742 mmHg 46%
    06:00 +20°C° 0 mm 2 m/s 742 mmHg 42%
    07:00 +23°C° 0 mm 2 m/s 743 mmHg 38%
    08:00 +25°C° 0 mm 1 m/s 743 mmHg 34%
    09:00 +27°C° 0 mm 2 m/s 743 mmHg 29%
    10:00 +30°C° 0 mm 2 m/s 743 mmHg 23%
    11:00 +34°C° 0 mm 2 m/s 743 mmHg 18%
    12:00 +35°C° 0 mm 2 m/s 742 mmHg 17%
    13:00 +36°C° 0 mm 2 m/s 742 mmHg 15%
    14:00 +37°C° 0 mm 2 m/s 741 mmHg 14%
    15:00 +36°C° 0 mm 2 m/s 741 mmHg 15%
    16:00 +36°C° 0 mm 2 m/s 740 mmHg 16%
    17:00 +35°C° 0 mm 2 m/s 740 mmHg 16%
    18:00 +31°C° 0 mm 2 m/s 740 mmHg 21%
    19:00 +28°C° 0 mm 2 m/s 740 mmHg 25%
    20:00 +25°C° 0 mm 2 m/s 741 mmHg 30%
    21:00 +24°C° 0 mm 2 m/s 741 mmHg 31%
    22:00 +23°C° 0 mm 2 m/s 741 mmHg 33%
    23:00 +23°C° 0 mm 2 m/s 741 mmHg 34%

    Après-demain, 18 Septembre, Mercredi

    Heure Température Précipitation Vent Pression Humidité
    00:00 +21°C° 0 mm 2 m/s 741 mmHg 34%
    01:00 +21°C° 0 mm 2 m/s 741 mmHg 35%
    02:00 +21°C° 0 mm 2 m/s 740 mmHg 35%
    03:00 +20°C° 0 mm 2 m/s 740 mmHg 36%
    04:00 +20°C° 0 mm 2 m/s 740 mmHg 36%
    05:00 +20°C° 0 mm 2 m/s 740 mmHg 37%
    06:00 +23°C° 0 mm 2 m/s 740 mmHg 35%
    07:00 +25°C° 0 mm 2 m/s 741 mmHg 32%
    08:00 +26°C° 0 mm 1 m/s 741 mmHg 30%
    09:00 +29°C° 0 mm 2 m/s 741 mmHg 27%
    10:00 +31°C° 0 mm 3 m/s 742 mmHg 23%
    11:00 +35°C° 0 mm 4 m/s 742 mmHg 20%
    12:00 +34°C° 0 mm 4 m/s 742 mmHg 22%
    13:00 +34°C° 0 mm 5 m/s 742 mmHg 24%
    14:00 +34°C° 0 mm 6 m/s 742 mmHg 25%
    15:00 +32°C° 0 mm 5 m/s 742 mmHg 30%
    16:00 +30°C° 0 mm 5 m/s 742 mmHg 34%
    17:00 +28°C° 0 mm 5 m/s 742 mmHg 38%
    18:00 +26°C° 0 mm 4 m/s 743 mmHg 43%
    19:00 +24°C° 0 mm 2 m/s 744 mmHg 49%
    20:00 +21°C° 0 mm 1 m/s 744 mmHg 54%
    21:00 +21°C° 0 mm 1 m/s 745 mmHg 54%
    22:00 +21°C° 0 mm 1 m/s 745 mmHg 55%
    23:00 +20°C° 0 mm 1 m/s 746 mmHg 55%

    19 Septembre, Jeudi

    Heure Température Précipitation Vent Pression Humidité
    00:00 +19°C° 0 mm 1 m/s 746 mmHg 62%
    01:00 +18°C° 0 mm 1 m/s 746 mmHg 68%
    02:00 +18°C° 0 mm 1 m/s 746 mmHg 74%
    03:00 +16°C° 0 mm 1 m/s 746 mmHg 78%
    04:00 +15°C° 0 mm 1 m/s 746 mmHg 82%
    05:00 +14°C° 0 mm 0 m/s 746 mmHg 87%
    06:00 +16°C° 0 mm 1 m/s 746 mmHg 83%
    07:00 +18°C° 0 mm 1 m/s 746 mmHg 79%
    08:00 +19°C° 0 mm 1 m/s 746 mmHg 75%
    09:00 +19°C° 0 mm 2 m/s 746 mmHg 69%
    10:00 +21°C° 0 mm 2 m/s 746 mmHg 64%
    11:00 +23°C° 0 mm 2 m/s 746 mmHg 58%
    12:00 +24°C° 0.1 mm 2 m/s 746 mmHg 55%
    13:00 +25°C° 0.1 mm 2 m/s 745 mmHg 52%
    14:00 +25°C° 0.1 mm 2 m/s 745 mmHg 49%
    15:00 +25°C° 0.1 mm 2 m/s 745 mmHg 49%
    16:00 +25°C° 0.1 mm 2 m/s 745 mmHg 49%
    17:00 +24°C° 0.1 mm 2 m/s 745 mmHg 49%
    18:00 +23°C° 0.2 mm 1 m/s 745 mmHg 55%
    19:00 +21°C° 0.2 mm 1 m/s 745 mmHg 61%
    20:00 +20°C° 0.2 mm 1 m/s 745 mmHg 66%
    21:00 +18°C° 0.5 mm 1 m/s 746 mmHg 73%
    22:00 +16°C° 0.5 mm 2 m/s 746 mmHg 80%
    23:00 +15°C° 0.5 mm 2 m/s 746 mmHg 87%

    20 Septembre, Vendredi

    Heure Température Précipitation Vent Pression Humidité
    00:00 +15°C° 0.5 mm 2 m/s 746 mmHg 88%
    01:00 +15°C° 0.5 mm 1 m/s 746 mmHg 88%
    02:00 +15°C° 0.5 mm 1 m/s 746 mmHg 88%
    03:00 +15°C° 0.1 mm 1 m/s 746 mmHg 86%
    04:00 +15°C° 0.1 mm 2 m/s 746 mmHg 84%
    05:00 +14°C° 0.1 mm 2 m/s 746 mmHg 82%
    06:00 +15°C° 0 mm 2 m/s 746 mmHg 75%
    07:00 +15°C° 0 mm 2 m/s 746 mmHg 68%
    08:00 +16°C° 0 mm 2 m/s 746 mmHg 60%
    09:00 +18°C° 0 mm 3 m/s 747 mmHg 50%
    10:00 +20°C° 0 mm 3 m/s 747 mmHg 40%
    11:00 +21°C° 0 mm 3 m/s 747 mmHg 30%
    12:00 +22°C° 0 mm 4 m/s 747 mmHg 27%
    13:00 +23°C° 0 mm 4 m/s 746 mmHg 23%
    14:00 +25°C° 0 mm 4 m/s 746 mmHg 19%
    15:00 +23°C° 0 mm 4 m/s 746 mmHg 19%
    16:00 +22°C° 0 mm 4 m/s 746 mmHg 19%
    17:00 +22°C° 0 mm 4 m/s 746 mmHg 19%
    18:00 +19°C° 0 mm 3 m/s 746 mmHg 24%
    19:00 +16°C° 0 mm 2 m/s 747 mmHg 28%
    20:00 +14°C° 0 mm 2 m/s 747 mmHg 33%
    21:00 +13°C° 0 mm 2 m/s 748 mmHg 34%
    22:00 +13°C° 0 mm 2 m/s 748 mmHg 35%
    23:00 +12°C° 0 mm 2 m/s 749 mmHg 36%

    21 Septembre, Samedi

    Heure Température Précipitation Vent Pression Humidité
    00:00 +12°C° 0 mm 2 m/s 749 mmHg 38%
    01:00 +12°C° 0 mm 2 m/s 749 mmHg 40%
    02:00 +10°C° 0 mm 2 m/s 749 mmHg 42%
    03:00 +10°C° 0 mm 2 m/s 749 mmHg 44%
    04:00 +10°C° 0 mm 1 m/s 749 mmHg 46%
    05:00 +10°C° 0 mm 1 m/s 750 mmHg 48%
    06:00 +12°C° 0 mm 1 m/s 750 mmHg 44%
    07:00 +13°C° 0 mm 1 m/s 750 mmHg 41%
    08:00 +15°C° 0 mm 1 m/s 751 mmHg 38%
    09:00 +16°C° 0 mm 1 m/s 751 mmHg 35%
    10:00 +18°C° 0 mm 2 m/s 751 mmHg 32%
    11:00 +19°C° 0 mm 2 m/s 751 mmHg 29%
    12:00 +20°C° 0 mm 2 m/s 750 mmHg 28%
    13:00 +21°C° 0 mm 2 m/s 750 mmHg 27%
    14:00 +21°C° 0 mm 2 m/s 750 mmHg 25%
    15:00 +21°C° 0 mm 2 m/s 749 mmHg 26%
    16:00 +21°C° 0 mm 2 m/s 749 mmHg 26%
    17:00 +21°C° 0 mm 2 m/s 749 mmHg 26%
    18:00 +18°C° 0 mm 2 m/s 749 mmHg 32%
    19:00 +16°C° 0 mm 1 m/s 750 mmHg 37%
    20:00 +14°C° 0 mm 1 m/s 750 mmHg 42%
    21:00 +13°C° 0 mm 1 m/s 750 mmHg 44%
    22:00 +12°C° 0 mm 1 m/s 751 mmHg 45%
    23:00 +11°C° 0 mm 1 m/s 751 mmHg 46%
    Voir plus